Regional Weather Roundup
Issued by NWS

Home | Current Version | Previous Version | Graphics & Text | Print | Product List | Glossary On
Versions: 1 2 3 4 5 6 7 8 9 10 11 12 13 14 15 16 17 18 19 20 21 22 23 24 25 26 27 28 29 30 31 32 33 34 35 36 37 38 39 40 41 42 43 44 45 46 47 48 49 50
000
ASUS43 KMPX 232010
RWRMN
WEATHER ROUNDUP FOR MINNESOTA
NATIONAL WEATHER SERVICE TWIN CITIES/CHANHASSEN MN
200 PM CST SUN NOV 23 2014


NOTE: "FAIR" INDICATES FEW OR NO CLOUDS BELOW 12,000 FEET WITH NO
SIGNIFICANT WEATHER AND/OR OBSTRUCTIONS TO VISIBILITY. N/A MEANS
CURRENT SKY AND/OR WEATHER CONDITIONS ARE NOT AVAILABLE.

MNZ060>063-068>070-232100-
   Twin Cities Metro

CITY           SKY/WX    TMP DP  RH WIND       PRES   REMARKS
TWIN CITIES    CLOUDY    44  39  82 NW6       29.39F
ST PAUL        CLOUDY    44  43  96 NW7       29.40S FOG
CRYSTAL        CLOUDY    44  37  76 NW10      29.40S
BLAINE         CLOUDY    45  41  87 NW7       29.40F
LAKEVILLE      CLOUDY    45  45 100 NW10      29.38F FOG
EDEN PRAIRIE   CLOUDY    45  39  79 NW10      29.39S
SOUTH ST PAUL  CLOUDY    46  45  95 N7        29.38F FOG
LAKE ELMO      DRIZZLE   45  45 100 N3        29.39F
$$
MNZ001>005-007-008-013>017-022>024-027-028-232100-
   Northwest Minnesota

CITY           SKY/WX    TMP DP  RH WIND       PRES   REMARKS
BEMIDJI        DRIZZLE   38  33  81 W3        29.39S
HALLOCK        CLOUDY    25  23  93 NW17G23   29.46R FOG     WCI  11
ROSEAU         CLOUDY    37  32  81 W5        29.38S
WARROAD        LGT RAIN  36  32  87 CALM      29.38F
THIEF RVR FALL CLOUDY    37  34  87 SW3       29.40S
CROOKSTON      CLOUDY    37  30  75 NW24      29.43R
FOSSTON        CLOUDY    36  34  93 SW6       29.41R
DETROIT LAKES  PTSUNNY   39  36  87 W7        29.42F
MOORHEAD       CLOUDY    37  28  70 W17       29.46R
PARK RAPIDS    CLOUDY    40  34  79 W6        29.40F
MAHNOMEN       CLOUDY    39  35  87 W7        29.41S
$$
MNZ006-009>011-018-025>026-232100-
   North Central Minnesota

CITY           SKY/WX    TMP DP  RH WIND       PRES   REMARKS
BAUDETTE       CLOUDY    35  33  92 CALM      29.38S FOG
FLAG ISLAND    SNOW      32  30  93 S6        29.37F VSB 1/4 WCI  26
INTL FALLS     CLOUDY    36  32  85 SW5       29.38R
WASKISH        CLOUDY    37  34  87 SW6       29.39S
BIG FORK       CLOUDY    37  34  87 SW6       29.39S FOG
LONGVILLE      CLOUDY    37  37 100 CALM      29.39F FOG
GRAND RAPIDS   CLOUDY    36  34  93 W3        29.39S
CRANE LAKE     CLOUDY    36  34  93 SW3       29.40S
ORR            CLOUDY    36  30  80 CALM      29.35F
COOK           CLOUDY    36  34  93 CALM      29.37F FOG
WALKER         CLOUDY    40  33  76 W3        29.39F
$$
MNZ012-019>021-037-232100-
   Northeast Minnesota

CITY           SKY/WX    TMP DP  RH WIND       PRES   REMARKS
DULUTH         CLOUDY    40  37  89 W3        29.38R FOG
ELY            CLOUDY    37  36  93 W5        29.36F FOG
HIBBING        CLOUDY    37  34  89 W5        29.38F FOG
EVELETH        CLOUDY    36  36 100 W7        29.39S FOG
DULUTH HARBOR  DRIZZLE   39  37  93 CALM      29.40S
TWO HARBORS    CLOUDY    43  37  81 CALM      29.36F HAZE
SILVER BAY     CLOUDY    43  39  87 CALM      29.36F FOG
GRAND MARAIS     N/A     41  40  96 NE3       29.40S
G MARAIS ARPRT PTSUNNY   39  36  87 S5        29.38S
$$
MNZ029>031-032-039>041-046>048-054>057-064-232100-
   West Central Minnesota

CITY           SKY/WX    TMP DP  RH WIND       PRES   REMARKS
FERGUS FALLS   CLOUDY    39  36  87 W5        29.46F
WHEATON        PTSUNNY   37  30  75 W15G26    29.48F
MORRIS           N/A     39  34  81 NW12      29.44F
ALEXANDRIA     CLOUDY    37  34  89 W10       29.43F
ELBOW LAKE       N/A     37  34  92 W8        29.44F
WADENA         CLOUDY    37  34  87 W7        29.41F
GLENWOOD       CLOUDY    37  36  93 W9        29.44S
APPLETON       CLOUDY    39  34  81 W9        29.46F
BENSON         CLOUDY    37  36  93 NW7       29.46S
ORTONVILLE     CLOUDY    39  28  65 NW16      29.46F
MADISON        CLOUDY    43  34  70 NW14      29.47F
WILLMAR        LGT RAIN  37  36  93 NW10      29.46F
$$
MNZ033>034-036-042>043-049>051-058-059-232100-
   Central Minnesota

CITY           SKY/WX    TMP DP  RH WIND       PRES   REMARKS
ST CLOUD       LGT RAIN  38  35  89 W7        29.42S FOG
SAUK CENTRE    DRIZZLE   36  34  94 W7        29.43S
PAYNESVILLE    RAIN      33  33  98 SW8       29.44F WCI  27
AITKIN         CLOUDY    43  36  75 W5        29.38F
PINE RIVER     CLOUDY    39  34  81 W3        29.44F
BRAINERD       CLOUDY    38  35  89 CALM      29.40F
STAPLES        CLOUDY    37  34  87 W7        29.41F
LONG PRAIRIE   CLOUDY    36  34  93 W6        29.42F
LITTLE FALLS   CLOUDY    36  34  93 NW7       29.41F
LITCHFIELD     DRIZZLE   37  37 100 CALM      29.44F
BUFFALO        LGT RAIN  38  36  91 W3        29.43S
MAPLE LAKE     LGT RAIN  38  38  99 W6        29.43S
$$
MNZ037-044-045-052-053-232100-
   East Central Minnesota

CITY           SKY/WX    TMP DP  RH WIND       PRES   REMARKS
PRINCETON      RAIN      39  37  93 CALM      29.42R
MORA           RAIN      36  36 100 CALM      29.41F
CAMBRIDGE      LGT RAIN  39  34  81 CALM      29.39F
RUSH CITY      CLOUDY    39  38  97 CALM      29.40F
MOOSE LAKE     DRIZZLE   39  36  87 CALM      29.38S
HINCKLEY       RAIN      37  37 100 CALM      29.39F VSB 3/4
CLOQUET        CLOUDY    39  37  93 W5        29.39R FOG
MCGREGOR       CLOUDY    37  36  93 W3        29.39F
$$
MNZ071>073-080-081-089-090-097-098-232100-
   Southwest Minnesota

CITY           SKY/WX    TMP DP  RH WIND       PRES   REMARKS
MONTEVIDEO     CLOUDY    39  39 100 NW7       29.47F
GRANITE FALLS  CLOUDY    38  36  91 W12G17    29.49S
CANBY          CLOUDY    42  33  72 NW13G20   29.49S
MARSHALL       CLOUDY    41  32  70 NW16G22   29.48S
REDWOOD FALLS  LGT RAIN  40  38  93 NW10      29.45F
OLIVIA         LGT RAIN  37  36  93 NW8       29.45S
PIPESTONE      CLOUDY    39  36  87 NW15G21   29.48S
WINDOM         DRIZZLE   43  39  87 NW17G24   29.45S
WORTHINGTON    CLOUDY    39  36  87 NW18      29.47S
JACKSON        CLOUDY    43  37  81 NW23G31   29.45S
TRACY          CLOUDY    42  38  84 NW16G23   29.47S
SLAYTON        CLOUDY    39  36  89 NW21      29.47S
$$
MNZ065>067-074>077-082>085-091>093-232100-
   South Central Minnesota

CITY           SKY/WX    TMP DP  RH WIND       PRES   REMARKS
MANKATO        CLOUDY    45  37  76 NW15G22   29.41F
NEW ULM        DRIZZLE   41  41 100 NW20      29.42F
ST JAMES       CLOUDY    43  39  87 NW20G28   29.44S
FAIRMONT       CLOUDY    45  37  76 NW17G24   29.43S
GLENCOE        DRIZZLE   41  39  93 NW9       29.42S
FARIBAULT      CLOUDY    48  46  93 W9        29.38F FOG
OWATONNA       DRIZZLE   48  46  93 NW6       29.37F
WASECA         CLOUDY    43  37  81 NW13G18   29.40S FOG
ALBERT LEA     CLOUDY    52  50  93 W8        29.36F FOG
$$
MNZ078>079-086>088-094>096-232100-
   Southeast Minnesota

CITY           SKY/WX    TMP DP  RH WIND       PRES   REMARKS
ROCHESTER      FOG       49  49 100 S9        29.38F VSB 1/4
RED WING       FOG       50  48  93 CALM      29.36F VSB 1
STANTON        LGT RAIN  51  49  93 CALM      29.36F VSB 1
DODGE CENTER   FOG       50  50 100 S7        29.37F VSB 1/4
WINONA         CLOUDY    50  48  93 E5        29.39F FOG
AUSTIN         LGT RAIN  48  48 100 S3        29.36F VSB<1/4
PRESTON        FOG       47  47  97 S7        29.38F VSB 1/4
$$
ABBREVIATIONS USED IN REMARKS
   TC - TEMPERATURES IN CELSIUS
  WCI - WIND CHILL INDEX
   HX - HEAT INDEX
  VSB - VISIBILITY
$$


USA.gov is the U.S. government's official web portal to all federal, state and local government web resources and services.